Location: Ethel Rock
(53.4667°N, 4.5667°W)
Time: 23:36:10
(UTC+00:00)

Cosmos 1626 - Pass Details

Date: 24 October 2020
Orbit: 491 x 494 km, 82.5° (Epoch: 26 November)

Event Time Altitude Azimuth Distance (km) Brightness Sun altitude
Rises 05:04:18 0° 175° (S) 2,565 5.8 -18.2°
Reaches altitude 10° 05:06:26 10° 170° (S) 1,688 4.9 -17.9°
Maximum altitude 05:10:00 48° 95° (E) 659 3.1 -17.3°
Drops below altitude 10° 05:13:35 10° 21° (NNE) 1,701 5.1 -16.8°
Sets 05:15:45 0° 16° (NNE) 2,588 6.0 -16.5°
